COSMOS 2251 DEB, 40224

Orbit data source: Space-Track

COSMOS 2251 DEB, 40224 is space debris in LEO originally from a launch on Wed, 16 Jun 1993 UTC launched from the Plesetsk Missile And Space Complex (PKMTR). The debris from Iridium 33, an American commercial communications satellite, has been tracked extensively since its accidental collision with the defunct Russian satellite Cosmos 2251 in 2009. This event, occurring at high speed in low Earth orbit (LEO), generated thousands of pieces of space debris, significantly increasing the risk of further collisions. The Iridium 33 debris cloud has impacted space traffic management and orbital debris mitigation strategies, making it a subject of ongoing study in space situational awareness.

Loading next visibility...
COSMOS 2251 DEB details
Identifier
40224, 1993-036BVD
Orbit
LEO
Last TLE update22 hours ago
Origin
Flag of CISKVR (CIS)
ManufacturerUnknown
MissionSpacecraft
Bus & MotorUnknown
MassUnknown
Launch date (UTC)
1993-06-16 (31 years ago)
Launch vehicleUnknown
Launch site
Plesetsk Missile And Space Complex (PKMTR)
Object type
Payload
Rocket body
Debris
Shape & HBRUnknown
Radar Cross SectionSmall (<0.1 m²)

Expand to show TLE details & history

TLE from 22 hours ago
0 COSMOS 2251 DEB
1 40224U 93036BVD 24339.47505929  .00079881  00000-0  52661-2 0  9990
2 40224  73.9772 232.5104 0062466 255.9757 278.4710 15.05467203544195
Epoch: 2024-12-04T11:24Z
Definitive object data (Epoch: 2024-12-04T11:24:05.122Z)
Latitude5.94163°
Longitude166.01608°
Altitude546.076 km
Speed7.593 km/s
True Right ascension03h 23m 13s
True Declination5° 54' 19"
Sunlit
Object was in full shadow at TLE epoch
Visualization TLE readout
Latitude50.63741°
Longitude6.22809°
Altitude597.857 km
Speed7.544 km/s
Apparent Right ascension18h 00m 38s
Apparent Declination8° 20' 19"
Sunlit
Object is in daylight
Visualization observer readout
Local Sidereal Time07:09:39
Azimuth22.249° NNE
Elevation-39.172°
Doppler factor1
Orbital elements
Apogee altitude590.887 km
Perigee altitude504.362 km
Semi-major axis6,925.762 km
Eccentricity0.0062466
Inclination73.9772°
RAAN232.5104°
Arg. of periapsis255.9757°
True anomaly277.7622°
Mean anomaly278.471°
Eccentric anomaly278.11668°
Mean motion3.76567 °/min
BSTAR0.0052661
Orbital period95.6 mins
Loading maneuver chart data...

COSMOS 2251 DEB Visibility forecast

Observer location: undefined°, undefined

Span
Click to sort rows by Start time (UTC) header in descending order
Start Az.
Max El. time (UTC)
Max El. Az.
Max El.
End time (UTC)
End Az.
6 mins2024-12-05 18:40:28.736Z230.737° WSW2024-12-05 18:42:28.736Z272.832° WNW33.408°2024-12-05 18:46:28.736Z2.797° NNE
6 mins2024-12-06 04:40:28.736Z317.878° NNW2024-12-06 04:42:28.736Z267.135° W35.644°2024-12-06 04:46:28.736Z182.909° SSW
|